TimeCDT,TemperatureF,Dew PointF,Humidity,Sea Level PressureIn,VisibilityMPH,Wind Direction,Wind SpeedMPH,Gust SpeedMPH,PrecipitationIn,Events,Conditions,WindDirDegrees,DateUTC
12:54 AM,42.1,28.0,58,30.06,10.0,SW,8.1,-,N/A,,Clear,230,2011-10-31 05:54:00
1:54 AM,42.1,27.0,55,30.06,10.0,SW,6.9,-,N/A,,Clear,230,2011-10-31 06:54:00
2:54 AM,42.1,27.0,55,30.07,10.0,West,8.1,-,N/A,,Clear,270,2011-10-31 07:54:00
3:54 AM,41.0,27.0,57,30.07,10.0,West,8.1,-,N/A,,Clear,280,2011-10-31 08:54:00
4:54 AM,39.9,26.1,58,30.09,10.0,WNW,6.9,-,N/A,,Clear,290,2011-10-31 09:54:00
5:54 AM,37.4,26.6,65,30.10,10.0,WNW,6.9,-,N/A,,Clear,300,2011-10-31 10:54:00
6:54 AM,37.0,25.0,62,30.11,10.0,West,5.8,-,N/A,,Clear,280,2011-10-31 11:54:00
7:54 AM,36.0,26.1,67,30.13,10.0,West,6.9,-,N/A,,Clear,260,2011-10-31 12:54:00
8:54 AM,42.1,27.0,55,30.15,10.0,West,5.8,-,N/A,,Clear,280,2011-10-31 13:54:00
9:54 AM,48.0,28.9,48,30.16,10.0,NW,6.9,-,N/A,,Clear,320,2011-10-31 14:54:00
10:54 AM,52.0,28.9,41,30.16,10.0,Calm,Calm,-,N/A,,Clear,0,2011-10-31 15:54:00
11:54 AM,55.0,27.0,34,30.16,10.0,Calm,Calm,-,N/A,,Clear,0,2011-10-31 16:54:00
12:54 PM,57.9,26.1,30,30.14,10.0,SW,6.9,-,N/A,,Clear,220,2011-10-31 17:54:00
1:54 PM,60.1,27.0,28,30.10,10.0,SSW,5.8,-,N/A,,Clear,200,2011-10-31 18:54:00
2:54 PM,63.0,28.0,27,30.09,10.0,WSW,9.2,-,N/A,,Clear,240,2011-10-31 19:54:00
3:54 PM,63.0,28.9,28,30.07,10.0,Variable,3.5,-,N/A,,Clear,0,2011-10-31 20:54:00
4:54 PM,63.0,30.0,29,30.06,10.0,SSW,4.6,-,N/A,,Clear,210,2011-10-31 21:54:00
5:54 PM,60.1,30.0,32,30.06,10.0,SE,4.6,-,N/A,,Clear,140,2011-10-31 22:54:00
6:54 PM,57.9,28.9,33,30.08,10.0,ESE,5.8,-,N/A,,Clear,110,2011-10-31 23:54:00
7:54 PM,55.0,28.9,37,30.08,10.0,ESE,8.1,-,N/A,,Clear,110,2011-11-01 00:54:00
8:54 PM,53.1,28.9,40,30.09,10.0,ESE,8.1,-,N/A,,Clear,110,2011-11-01 01:54:00
9:54 PM,51.1,30.0,44,30.08,10.0,ESE,8.1,-,N/A,,Clear,120,2011-11-01 02:54:00
10:54 PM,48.0,30.0,50,30.08,10.0,SE,8.1,-,N/A,,Clear,130,2011-11-01 03:54:00
11:54 PM,48.0,30.9,52,30.08,10.0,SE,9.2,-,N/A,,Clear,140,2011-11-01 04:54:00